This is the latest recevied weather packets stored in our database for station/object N1UNH. If no packets are shown the sender has not sent any weather packets the latest 1 day(s).
| Time | Temp. | Humidity | Pressure | Rain* | Wind** | Luminosity | Snow |
|---|---|---|---|---|---|---|---|
| 1777991165 | 21.11° C | 44% | 1013.9 hPa | 0 mm | 0.89 m/s, 204° | 199 W/m² | - |
| 1777990862 | 21.11° C | 44% | 1013.8 hPa | 0 mm | 1.34 m/s, 204° | 114 W/m² | - |
| 1777990559 | 21.11° C | 45% | 1013.4 hPa | 0 mm | 0.45 m/s, 204° | 162 W/m² | - |
| 1777990256 | 20.56° C | 46% | 1013.4 hPa | 0 mm | 0 m/s | 137 W/m² | - |
| 1777989953 | 20° C | 47% | 1013.8 hPa | 0 mm | 0.89 m/s, 204° | 149 W/m² | - |
| 1777989650 | 20° C | 46% | 1013.8 hPa | 0 mm | 0.89 m/s, 204° | 98 W/m² | - |
| 1777989346 | 20° C | 49% | 1013.8 hPa | 0 mm | 0.45 m/s, 204° | 87 W/m² | - |
| 1777989042 | 19.44° C | 49% | 1013.6 hPa | 0 mm | 0 m/s | 92 W/m² | - |
| 1777988738 | 19.44° C | 49% | 1014 hPa | 0 mm | 0.45 m/s, 204° | 98 W/m² | - |
| 1777988436 | 19.44° C | 50% | 1014.1 hPa | 0 mm | 0.89 m/s, 204° | 86 W/m² | - |
| 1777988132 | 18.89° C | 51% | 1013.9 hPa | 0 mm | 1.34 m/s, 204° | 101 W/m² | - |
| 1777987832 | 18.33° C | 52% | 1013.9 hPa | 0 mm | 0.45 m/s, 204° | 97 W/m² | - |
| 1777987525 | 17.78° C | 56% | 1014 hPa | 0 mm | 0.45 m/s, 204° | 83 W/m² | - |
| 1777987223 | 17.22° C | 57% | 1014 hPa | 0 mm | 0 m/s | 88 W/m² | - |
| 1777986919 | 17.22° C | 61% | 1014 hPa | 0 mm | 0 m/s | 87 W/m² | - |
| 1777986618 | 17.22° C | 60% | 1013.8 hPa | 0 mm | 0 m/s | 82 W/m² | - |
| 1777986315 | 17.22° C | 60% | 1013.8 hPa | 0 mm | 0 m/s | 81 W/m² | - |
| 1777986014 | 17.22° C | 59% | 1013.6 hPa | 0 mm | 0 m/s | 134 W/m² | - |
| 1777985710 | 17.22° C | 60% | 1013.6 hPa | 0 mm | 0 m/s | 125 W/m² | - |
| 1777985407 | 17.22° C | 57% | 1014 hPa | 0 mm | 0 m/s | 131 W/m² | - |
| 1777985103 | 16.67° C | 59% | 1013.9 hPa | 0 mm | 0 m/s | 128 W/m² | - |
| 1777984799 | 16.67° C | 61% | 1013.8 hPa | 0 mm | 0.45 m/s, 204° | 151 W/m² | - |
| 1777984496 | 16.11° C | 59% | 1014 hPa | 0 mm | 0.45 m/s, 204° | 123 W/m² | - |
| 1777984192 | 15.56° C | 63% | 1013.8 hPa | 0 mm | 0 m/s | 87 W/m² | - |
| 1777983889 | 15.56° C | 61% | 1014.2 hPa | 0 mm | 0 m/s | 83 W/m² | - |
* Rain latest hour (hover to see other rain measurements)
** Current wind speed in m/s (hover to see current wind gust speed)